Location: *
(47.6569°N, 7.4256°E)
Time: 03:14:42
(UTC+00:00)

Cosmos 1975 - Pass Details

Date: 14 December 2019
Orbit: 543 x 561 km, 82.5° (Epoch: 17 January)

Event Time Altitude Azimuth Distance (km) Brightness Sun altitude
Rises 17:22:12 0° 353° (N) 2,721 6.3 -16.5°
Reaches altitude 10° 17:24:23 10° 356° (N) 1,825 5.3 -16.9°
Maximum altitude 17:28:22 65° 79° (E) 606 2.7 -17.5°
Drops below altitude 10° 17:32:21 10° 162° (SSE) 1,818 5.4 -18.1°
Sets 17:34:31 0° 165° (SSE) 2,709 6.4 -18.5°
